Location: Emblem
(62.4273°N, 6.4710°E)
Time: 15:47:48
(UTC+02:00)

Altair - Pass Details

Date: 10 February 2023
Orbit: 1501 x 1682 km, 47.2° (Epoch: 31 March)

Event Time Altitude Azimuth Distance (km) Brightness Sun altitude
Rises 20:56:23 0° 249° (WSW) 4,769 10.7 -27.1°
Reaches altitude 10° 20:59:48 10° 241° (WSW) 3,812 10.0 -27.5°
Maximum altitude 21:08:05 33° 182° (S) 2,494 8.3 -28.3°
Enters shadow 21:09:25 32° 168° (SSE) 2,546 8.3 -28.5°
